Temp
-18 -18 -18 -18 -18 -19 -19 -19 -20 -21 -22 -23 -23 -24 -26 -28 -30 -31 -32 -32 -32 -32 -32 -32 -32 -32 -32 -32 -32 -32 -32 -32 -32 -32 -32 -32 -32 -32 -32 -32 -32 -32 -32
-19 -18 -18 -19 -19 -19 -20 -20 -21 -22 -23 -24 -24 -27 -29 -30 -31 -32 -33 -32 -33 -32 -33 -32 -32 -32 -32 -32 -32 -32 -33 -33 -32 -32 -32 -32 -32 -32 -32 -32 -32 -32 -32
-19 -19 -19 -19 -19 -20 -20 -21 -22 -23 -24 -24 -27 -29 -30 -31 -33 -33 -33 -33 -32 -33 -32 -32 -33 -32 -33 -33 -33 -33 -34 -34 -34 -33 -33 -33 -33 -33 -32 -32 -32 -33 -32
-19 -19 -19 -19 -20 -20 -21 -22 -23 -24 -24 -26 -29 -31 -31 -32 -34 -33 -33 -33 -33 -33 -33 -32 -32 -33 -33 -34 -34 -34 -34 -34 -35 -35 -34 -34 -33 -34 -33 -33 -32 -32 -32
-19 -19 -20 -20 -20 -21 -23 -23 -24 -25 -27 -29 -30 -31 -32 -33 -33 -33 -33 -33 -33 -33 -32 -32 -33 -33 -34 -34 -34 -34 -34 -35 -35 -36 -35 -34 -34 -34 -34 -33 -33 -32 -32
-20 -20 -20 -21 -22 -23 -23 -24 -25 -27 -29 -31 -31 -32 -32 -33 -33 -33 -33 -33 -33 -33 -33 -33 -33 -34 -34 -34 -34 -34 -35 -35 -36 -36 -36 -35 -34 -34 -34 -34 -33 -32 -32
-20 -20 -21 -22 -23 -23 -24 -25 -27 -29 -31 -32 -32 -32 -33 -33 -33 -33 -33 -33 -33 -33 -33 -33 -33 -34 -34 -34 -35 -35 -36 -36 -36 -36 -37 -36 -35 -35 -34 -34 -34 -33 -32
-20 -21 -22 -23 -23 -24 -26 -27 -29 -31 -32 -32 -33 -33 -32 -33 -33 -33 -33 -33 -33 -33 -33 -33 -34 -34 -34 -34 -35 -35 -36 -36 -36 -36 -37 -36 -36 -35 -35 -34 -34 -33 -32
-21 -23 -23 -23 -24 -26 -27 -29 -30 -31 -32 -33 -33 -32 -32 -33 -33 -33 -33 -33 -33 -33 -33 -33 -34 -34 -34 -34 -35 -35 -36 -37 -37 -37 -37 -37 -36 -36 -35 -35 -34 -33 -32
-23 -23 -24 -24 -26 -27 -28 -30 -31 -32 -32 -33 -32 -32 -32 -33 -33 -33 -33 -33 -33 -33 -34 -34 -34 -34 -34 -34 -34 -35 -36 -36 -36 -36 -37 -37 -36 -36 -35 -35 -34 -32 -31
-23 -24 -25 -26 -27 -28 -30 -31 -31 -32 -33 -33 -32 -32 -32 -33 -33 -33 -33 -33 -33 -33 -33 -33 -33 -33 -34 -34 -34 -35 -35 -35 -35 -36 -36 -36 -36 -35 -35 -34 -32 -32 -31
-24 -25 -26 -27 -28 -29 -30 -31 -32 -33 -33 -33 -33 -32 -33 -33 -33 -33 -33 -33 -33 -33 -33 -33 -33 -33 -33 -34 -34 -34 -34 -34 -35 -35 -35 -35 -35 -34 -33 -32 -31 -31 -30
-25 -26 -27 -28 -29 -30 -31 -32 -32 -33 -33 -33 -33 -33 -33 -33 -33 -33 -33 -33 -33 -33 -33 -33 -33 -33 -33 -33 -34 -34 -33 -33 -33 -33 -33 -33 -33 -32 -32 -31 -31 -30 -30
-26 -28 -28 -29 -30 -31 -31 -32 -33 -33 -33 -33 -33 -33 -33 -33 -33 -33 -33 -33 -33 -33 -33 -33 -33 -33 -33 -33 -33 -33 -33 -33 -32 -32 -32 -32 -32 -31 -31 -31 -30 -30 -30
-28 -29 -30 -30 -31 -32 -32 -33 -33 -34 -34 -33 -33 -33 -33 -33 -33 -33 -33 -33 -33 -33 -33 -34 -34 -33 -33 -33 -33 -33 -33 -33 -32 -32 -32 -32 -31 -31 -31 -31 -31 -30 -30
-28 -29 -30 -31 -31 -32 -33 -33 -34 -34 -34 -34 -34 -34 -34 -34 -34 -33 -33 -33 -33 -33 -33 -34 -34 -33 -33 -33 -33 -33 -33 -33 -32 -32 -32 -32 -31 -31 -31 -31 -30 -30 -30
-30 -30 -31 -32 -32 -33 -33 -34 -34 -34 -33 -34 -34 -34 -34 -34 -34 -33 -33 -33 -33 -34 -34 -34 -34 -34 -33 -33 -33 -33 -33 -33 -32 -32 -32 -32 -31 -31 -30 -30 -30 -30 -30
-31 -31 -32 -32 -33 -33 -33 -34 -34 -34 -34 -34 -34 -34 -34 -34 -34 -34 -33 -33 -33 -34 -34 -34 -34 -34 -34 -33 -33 -33 -33 -33 -32 -32 -32 -32 -32 -31 -31 -31 -30 -30 -30
-31 -32 -33 -33 -33 -34 -34 -34 -34 -34 -34 -34 -34 -34 -34 -34 -34 -34 -33 -33 -33 -34 -35 -34 -34 -34 -34 -34 -34 -33 -33 -33 -33 -32 -32 -32 -32 -31 -31 -31 -31 -31 -31
-32 -33 -33 -33 -34 -34 -34 -34 -34 -34 -34 -34 -34 -34 -34 -34 -34 -34 -34 -34 -34 -34 -35 -35 -35 -34 -34 -34 -34 -34 -34 -33 -33 -32 -32 -32 -32 -32 -32 -31 -31 -31 -31
-33 -33 -33 -34 -34 -34 -34 -35 -34 -34 -34 -34 -34 -35 -35 -35 -35 -35 -34 -34 -34 -35 -35 -35 -35 -35 -35 -34 -34 -34 -34 -34 -33 -33 -33 -33 -32 -32 -32 -32 -32 -32 -32
-33 -34 -34 -34 -35 -35 -35 -34 -34 -34 -34 -34 -34 -35 -35 -35 -35 -35 -35 -35 -35 -35 -35 -36 -35 -35 -35 -35 -34 -34 -34 -34 -34 -34 -33 -33 -33 -33 -33 -32 -32 -32 -32
-34 -34 -34 -34 -35 -35 -35 -35 -34 -34 -34 -35 -35 -35 -35 -35 -36 -36 -36 -36 -36 -36 -36 -36 -36 -36 -36 -36 -35 -35 -35 -35 -34 -34 -34 -34 -33 -33 -33 -33 -33 -33 -33
-34 -34 -34 -34 -35 -35 -35 -34 -34 -35 -35 -35 -35 -35 -36 -36 -36 -36 -36 -36 -36 -36 -37 -36 -36 -36 -36 -36 -36 -36 -36 -35 -35 -35 -34 -34 -34 -34 -33 -33 -33 -33 -33
-34 -35 -34 -34 -35 -34 -34 -34 -35 -35 -35 -35 -35 -35 -36 -36 -36 -36 -36 -37 -37 -37 -37 -37 -37 -37 -37 -37 -37 -37 -37 -36 -36 -36 -36 -35 -35 -34 -34 -34 -34 -34 -34
-35 -35 -35 -35 -35 -35 -35 -35 -35 -35 -35 -35 -35 -36 -36 -36 -36 -36 -36 -37 -37 -37 -37 -37 -37 -37 -37 -37 -37 -37 -37 -37 -37 -37 -37 -37 -36 -36 -35 -35 -34 -34 -34
Height
5688 5680 5671 5662 5653 5642 5631 5618 5605 5592 5576 5560 5545 5529 5513 5500 5489 5479 5473 5466 5458 5452 5445 5437 5431 5427 5422 5416 5410 5406 5402 5398 5398 5400 5401 5404 5406 5407 5408 5411 5415 5420 5424
5675 5667 5658 5648 5638 5627 5614 5601 5587 5572 5556 5539 5523 5506 5491 5480 5471 5464 5458 5451 5445 5438 5431 5424 5418 5413 5407 5400 5394 5389 5384 5381 5377 5379 5381 5386 5387 5391 5394 5397 5400 5406 5413
5665 5656 5647 5636 5624 5612 5596 5581 5566 5549 5532 5517 5499 5484 5472 5463 5456 5451 5446 5439 5432 5426 5419 5411 5404 5397 5391 5384 5377 5372 5367 5364 5360 5358 5361 5366 5367 5372 5377 5382 5386 5392 5399
5653 5643 5631 5619 5607 5592 5576 5560 5543 5526 5509 5493 5479 5467 5457 5449 5445 5441 5434 5428 5421 5415 5406 5397 5389 5382 5376 5370 5364 5359 5353 5348 5344 5341 5342 5345 5348 5354 5358 5364 5370 5377 5385
5638 5626 5615 5602 5587 5572 5556 5538 5521 5504 5489 5476 5465 5454 5446 5440 5437 5432 5426 5419 5412 5404 5394 5385 5377 5370 5363 5356 5350 5344 5338 5333 5329 5325 5325 5327 5332 5337 5341 5347 5353 5361 5372
5622 5610 5597 5582 5567 5552 5536 5518 5502 5486 5473 5462 5453 5446 5439 5435 5431 5424 5418 5411 5402 5392 5383 5375 5367 5360 5352 5344 5335 5327 5321 5316 5313 5308 5308 5311 5315 5321 5326 5331 5339 5347 5358
5606 5593 5579 5564 5548 5532 5516 5499 5483 5470 5459 5452 5446 5440 5435 5430 5424 5418 5410 5402 5393 5382 5373 5365 5359 5351 5342 5332 5322 5313 5306 5301 5296 5292 5293 5297 5301 5307 5312 5320 5325 5333 5346
5590 5576 5560 5547 5530 5512 5496 5482 5469 5458 5449 5443 5438 5433 5429 5424 5418 5411 5403 5394 5384 5374 5365 5358 5351 5342 5332 5321 5311 5302 5295 5289 5284 5281 5283 5287 5291 5295 5301 5307 5314 5323 5334
5572 5557 5542 5527 5513 5496 5481 5467 5456 5448 5442 5436 5432 5427 5422 5416 5410 5403 5396 5387 5377 5366 5357 5351 5344 5335 5326 5315 5304 5295 5287 5281 5276 5274 5274 5279 5283 5286 5292 5299 5305 5312 5324
5555 5540 5525 5510 5495 5481 5467 5455 5445 5439 5433 5429 5424 5419 5414 5409 5403 5396 5388 5380 5371 5361 5352 5345 5339 5331 5322 5311 5300 5291 5282 5275 5271 5269 5269 5272 5276 5280 5285 5291 5296 5307 5317
5538 5523 5508 5494 5480 5467 5454 5444 5436 5430 5426 5422 5417 5412 5407 5402 5395 5388 5380 5373 5364 5355 5348 5342 5336 5328 5319 5308 5298 5288 5280 5273 5269 5267 5267 5269 5272 5276 5280 5286 5293 5303 5312
5520 5505 5492 5478 5465 5453 5443 5434 5428 5423 5419 5415 5410 5404 5399 5394 5387 5381 5373 5366 5358 5350 5344 5338 5333 5326 5318 5308 5298 5290 5282 5275 5271 5268 5268 5269 5272 5275 5280 5286 5294 5302 5309
5504 5489 5476 5464 5452 5441 5432 5425 5420 5416 5412 5408 5403 5397 5392 5386 5380 5374 5367 5359 5351 5345 5339 5335 5330 5325 5318 5309 5301 5293 5287 5281 5276 5274 5273 5273 5275 5279 5283 5289 5294 5301 5307
5488 5474 5461 5450 5440 5430 5423 5418 5413 5409 5405 5401 5396 5391 5386 5380 5374 5369 5362 5354 5346 5340 5335 5331 5328 5324 5318 5311 5305 5298 5292 5287 5283 5281 5279 5279 5281 5283 5287 5291 5296 5301 5306
5473 5460 5448 5439 5430 5422 5416 5411 5406 5402 5398 5394 5389 5385 5380 5375 5369 5363 5356 5349 5342 5336 5331 5327 5325 5321 5318 5313 5307 5302 5297 5293 5290 5287 5286 5286 5286 5288 5290 5293 5297 5301 5305
5460 5448 5437 5428 5421 5415 5409 5405 5400 5397 5393 5389 5384 5380 5375 5369 5363 5357 5350 5343 5337 5332 5328 5324 5321 5319 5316 5313 5309 5305 5301 5298 5296 5293 5291 5291 5291 5292 5293 5295 5298 5301 5304
5446 5436 5427 5420 5414 5408 5404 5399 5395 5390 5386 5383 5378 5374 5369 5363 5357 5351 5345 5338 5332 5327 5324 5320 5317 5316 5314 5312 5310 5307 5304 5301 5300 5299 5297 5296 5296 5296 5296 5298 5300 5303 5305
5435 5425 5419 5412 5407 5403 5398 5394 5389 5385 5381 5376 5372 5368 5363 5358 5352 5346 5340 5334 5327 5322 5320 5317 5314 5312 5311 5309 5308 5307 5305 5303 5302 5301 5300 5299 5299 5299 5300 5301 5302 5303 5305
5425 5417 5411 5405 5401 5396 5392 5387 5384 5380 5376 5372 5367 5363 5358 5353 5348 5341 5335 5329 5323 5319 5316 5313 5310 5308 5306 5306 5305 5304 5303 5302 5301 5300 5300 5300 5300 5301 5301 5302 5303 5304 5305
5415 5409 5403 5398 5394 5390 5385 5381 5378 5375 5372 5368 5362 5358 5353 5348 5343 5337 5331 5325 5320 5315 5312 5309 5307 5304 5302 5300 5300 5300 5299 5299 5298 5298 5298 5298 5298 5299 5300 5301 5301 5302 5303
5406 5400 5395 5391 5387 5383 5379 5376 5373 5370 5366 5362 5357 5353 5348 5343 5338 5333 5328 5322 5316 5312 5308 5305 5303 5300 5298 5295 5294 5293 5294 5294 5294 5294 5294 5294 5294 5295 5296 5297 5298 5299 5300
5397 5392 5387 5384 5381 5377 5374 5371 5368 5365 5361 5356 5352 5347 5343 5339 5334 5329 5324 5319 5313 5309 5305 5301 5298 5295 5293 5290 5288 5286 5286 5286 5287 5288 5288 5289 5289 5289 5290 5291 5292 5293 5295
5388 5384 5380 5377 5375 5372 5369 5365 5362 5358 5354 5350 5346 5342 5338 5334 5329 5325 5321 5316 5311 5306 5301 5297 5293 5289 5286 5283 5281 5279 5277 5277 5277 5278 5280 5281 5282 5283 5284 5285 5286 5286 5288
5381 5377 5373 5370 5367 5365 5362 5359 5355 5351 5347 5343 5340 5336 5332 5328 5325 5321 5317 5313 5308 5303 5298 5293 5288 5283 5279 5276 5273 5270 5268 5267 5267 5267 5268 5270 5272 5274 5276 5277 5278 5279 5280
5375 5371 5367 5364 5361 5357 5354 5351 5347 5343 5340 5336 5332 5329 5326 5322 5319 5316 5312 5309 5305 5300 5296 5290 5284 5279 5274 5269 5265 5262 5260 5258 5257 5257 5258 5259 5261 5263 5265 5267 5268 5270 5271
5369 5365 5361 5358 5354 5351 5347 5343 5339 5335 5331 5328 5325 5321 5318 5315 5312 5309 5307 5304 5300 5296 5292 5287 5281 5275 5269 5264 5259 5255 5252 5250 5249 5248 5248 5249 5250 5251 5253 5255 5257 5258 5260
Wind_Speed
62 66 68 72 77 81 85 88 91 93 94 94 95 96 91 83 76 72 74 71 62 68 74 59 50 53 54 54 55 56 56 57 56 54 53 51 50 50 48 48 47 44 42
66 68 71 76 80 84 87 90 91 93 94 96 98 88 77 73 67 63 58 55 60 71 51 51 52 54 56 58 57 56 56 56 59 57 55 53 55 54 53 51 50 47 42
67 70 75 79 81 85 89 91 93 95 96 98 90 77 67 61 57 55 61 64 54 50 51 52 55 57 54 50 49 49 50 51 52 54 52 50 53 55 57 56 54 50 48
70 74 77 81 84 89 91 92 96 98 101 94 75 61 56 51 46 49 42 42 48 49 53 54 53 49 45 41 43 44 44 44 48 51 52 50 50 50 57 60 59 54 50
74 77 81 85 88 89 91 94 96 98 91 73 56 50 45 38 36 37 43 46 47 53 51 52 47 43 45 46 46 47 47 47 45 48 50 50 50 48 50 56 60 57 51
75 80 85 87 88 90 94 95 97 89 72 54 44 39 31 28 33 40 44 46 50 52 50 48 43 44 46 48 49 48 47 45 44 45 44 43 48 46 47 49 54 58 51
79 84 85 85 89 94 94 94 86 70 53 42 36 32 33 33 36 42 47 46 52 50 48 44 41 44 46 47 46 43 42 40 41 35 35 36 39 43 45 43 46 53 51
82 83 83 88 92 92 92 86 72 56 44 37 35 35 35 36 39 43 47 47 53 47 44 39 40 41 43 44 42 39 36 36 34 28 29 30 32 37 41 41 41 45 45
81 81 87 92 92 90 85 75 59 48 38 34 35 37 36 37 40 44 46 46 48 42 39 37 38 38 41 43 38 35 32 30 26 22 24 29 29 31 34 35 36 39 38
80 86 89 92 89 86 76 62 50 42 34 33 36 37 36 37 40 44 44 47 42 39 34 34 34 36 39 40 37 32 28 23 18 15 15 21 25 27 29 29 30 31 35
84 88 91 89 85 76 66 54 43 35 32 34 36 36 35 36 40 43 42 47 39 35 29 30 30 34 37 37 36 32 27 20 12 9 7 10 15 20 22 23 26 29 29
86 89 87 83 76 68 58 45 37 32 31 32 35 35 36 37 40 39 42 45 37 33 27 26 26 30 34 34 33 31 26 19 13 6 0 6 10 13 16 19 21 24 27
89 86 82 77 67 60 50 38 34 31 31 33 35 37 36 37 40 38 42 43 38 33 25 24 23 26 30 29 28 27 24 18 13 9 6 6 8 11 14 17 20 23 23
85 79 75 67 60 52 41 34 32 32 32 33 35 36 35 37 37 38 40 41 39 31 26 22 22 22 26 26 23 23 21 17 13 9 8 8 9 11 14 16 18 20 20
78 74 66 60 52 43 35 32 31 31 31 31 33 33 34 35 35 37 39 40 38 29 26 21 21 19 21 23 20 18 18 17 13 9 7 7 8 10 11 13 14 15 15
74 66 58 52 43 36 31 30 29 28 29 30 31 31 33 34 36 38 39 38 36 28 25 21 19 18 17 18 19 14 13 13 12 10 9 8 7 8 8 9 10 11 13
65 58 50 43 37 32 27 26 27 31 30 29 30 31 33 34 36 37 37 36 33 27 23 21 18 17 15 14 14 15 10 9 9 8 8 8 9 8 9 10 12 12 12
57 50 43 37 33 29 29 29 29 28 28 29 30 31 33 34 35 35 34 34 32 26 21 20 19 17 17 14 12 11 11 7 5 4 3 4 4 4 4 5 7 8 7
51 44 39 34 32 31 31 31 28 25 25 27 31 32 31 32 33 33 32 32 30 25 21 19 19 18 18 18 15 13 11 10 8 6 6 4 2 2 1 2 3 4 5
46 39 36 32 31 31 30 29 24 23 26 29 31 29 30 31 32 32 31 30 28 25 21 20 19 20 19 18 20 18 15 13 12 11 10 10 10 10 9 9 8 7 8
40 37 33 30 29 28 26 24 23 25 29 29 30 29 29 30 30 30 30 30 28 25 23 22 22 22 20 19 19 22 22 19 16 15 15 14 14 14 15 15 15 14 13
38 34 30 27 26 25 24 23 25 28 30 31 29 29 28 28 28 29 30 29 29 28 26 25 25 25 23 22 21 20 23 26 25 22 20 18 17 17 17 17 18 19 19
35 30 28 26 26 26 26 27 28 29 30 30 31 29 27 26 26 27 29 29 29 29 29 28 28 29 28 27 26 25 23 23 27 30 28 26 23 21 20 19 19 19 20
31 28 27 26 27 28 29 30 30 30 30 31 31 29 27 25 24 24 25 26 28 30 31 30 29 28 28 26 25 25 24 24 25 27 32 34 32 30 28 26 25 24 23
29 27 24 24 24 26 28 29 30 30 30 30 30 30 29 25 25 24 24 24 26 28 31 33 32 30 28 26 25 24 23 23 24 25 27 31 35 36 35 34 32 31 29
28 26 26 27 27 29 30 32 33 33 33 32 30 31 30 28 25 25 25 24 24 26 28 31 36 35 31 29 27 25 23 22 22 24 24 25 29 32 36 38 38 37 36
Wind_Direction
309 311 311 311 313 312 312 312 311 310 310 310 310 308 305 302 300 289 294 297 299 300 303 301 296 297 295 293 292 289 286 282 278 273 270 266 261 259 258 257 254 253 253
311 310 311 313 312 312 311 310 310 311 312 311 310 309 304 300 297 294 293 299 304 305 302 301 300 299 298 296 293 289 285 281 278 273 267 263 258 255 253 252 252 250 246
311 312 312 311 311 310 311 312 313 313 313 313 313 310 304 300 297 292 295 302 302 305 305 305 304 303 302 299 296 292 287 281 276 272 268 260 254 249 248 248 248 246 245
310 311 311 311 312 312 312 313 315 315 315 315 313 309 304 301 300 305 306 308 311 310 310 309 308 307 306 302 297 295 292 289 279 270 264 260 255 249 243 244 244 242 243
311 312 313 314 313 313 315 316 317 316 316 315 313 309 309 310 309 313 315 314 313 314 314 314 313 312 307 304 301 296 292 288 286 276 264 257 253 249 246 241 240 241 237
312 314 315 313 314 317 318 317 317 317 317 316 315 312 317 315 314 318 317 317 319 320 319 316 314 311 310 308 305 300 295 291 288 277 265 255 250 246 243 242 239 239 236
313 314 314 316 318 318 318 318 319 318 317 314 316 318 316 312 314 317 320 319 323 322 319 317 315 316 316 314 311 304 297 294 294 277 255 251 248 245 243 242 239 235 233
314 315 317 319 319 318 319 320 319 317 314 311 312 313 313 312 313 314 319 322 325 322 319 318 321 324 326 325 322 313 302 298 296 279 247 246 248 245 242 241 243 233 228
316 317 319 320 320 319 321 320 317 314 311 307 309 310 312 308 312 315 320 324 325 322 321 321 326 331 331 331 328 326 315 307 299 283 254 241 242 243 239 242 241 226 219
317 320 320 320 319 321 320 319 314 313 309 308 313 313 307 307 312 318 320 327 327 325 322 323 328 333 334 336 337 336 330 319 305 290 265 245 236 233 238 238 222 212 210
319 319 319 319 321 321 320 317 312 311 308 306 313 313 308 310 314 320 323 328 329 327 321 322 330 335 339 342 345 346 347 341 327 302 262 229 226 229 228 210 201 203 205
320 318 318 321 321 320 319 314 310 308 308 311 315 314 313 315 318 322 325 328 330 331 321 322 331 338 343 347 351 354 356 2 3 5 233 208 211 205 195 189 192 196 205
319 317 320 321 320 319 318 311 309 308 306 309 313 316 317 317 320 322 326 329 332 333 321 322 328 336 347 352 356 358 2 11 26 47 84 126 146 158 169 180 189 198 206
317 319 320 320 319 318 316 310 309 310 308 309 314 317 317 317 321 323 326 330 332 331 326 320 322 331 345 352 359 7 10 13 25 53 85 115 134 148 161 175 187 199 211
319 319 320 319 320 317 313 309 309 310 311 313 315 315 316 319 321 323 327 329 330 326 326 315 315 321 336 352 355 10 18 25 30 42 72 101 128 146 161 177 188 197 207
319 320 319 321 319 315 312 310 310 313 314 314 313 314 317 320 323 326 327 327 328 324 326 314 306 312 324 340 350 359 13 26 36 51 74 94 116 139 158 173 181 189 194
320 320 320 320 316 316 315 315 315 313 313 314 314 318 320 322 325 326 326 327 328 324 321 318 302 302 306 322 336 342 355 13 32 41 55 73 89 102 122 142 150 152 157
319 320 319 316 312 314 317 315 313 313 314 316 316 318 320 323 325 328 328 328 329 324 318 321 312 294 293 299 311 319 325 326 339 359 23 51 71 96 129 151 158 162 162
319 318 316 313 307 308 313 315 313 313 315 316 315 317 319 322 327 330 330 330 331 327 316 320 321 310 290 284 291 296 299 297 285 277 276 273 265 248 216 202 211 204 204
317 316 313 312 310 308 311 312 311 313 316 317 318 318 320 325 330 333 333 332 332 332 322 317 322 321 314 289 276 277 279 281 276 268 260 260 258 255 250 244 241 243 242
314 313 311 312 312 312 313 310 309 311 315 319 320 318 320 326 330 335 336 335 336 334 330 324 317 315 315 311 292 272 265 264 262 260 261 254 249 249 249 248 246 243 245
311 310 307 306 310 311 311 310 308 308 311 315 316 316 317 323 327 333 337 338 341 339 333 327 322 317 312 309 304 295 275 261 255 252 249 248 247 244 244 246 247 248 248
311 310 307 299 301 303 305 308 310 310 313 314 313 312 312 319 323 328 336 341 343 341 337 332 326 321 315 309 301 297 286 276 262 252 249 248 247 245 244 243 245 246 248
312 313 310 302 298 299 302 305 307 310 311 310 308 307 306 311 313 318 327 337 342 345 344 340 336 330 322 315 306 298 288 279 272 262 252 248 247 248 248 246 246 248 249
311 311 314 311 308 307 308 307 308 309 309 308 305 304 302 302 306 308 315 324 334 339 345 348 345 339 330 322 314 305 295 285 276 269 262 254 249 247 247 248 249 250 249
308 307 310 311 311 310 310 310 310 308 304 302 301 299 299 297 298 300 304 312 317 330 335 341 347 345 337 330 323 314 304 293 283 275 267 262 256 253 250 249 248 249 250